Regional Weather Roundup
Issued by NWS

Home | Current Version | Previous Version | Graphics & Text | Print | Product List | Glossary On
Versions: 1 2 3 4 5 6 7 8 9 10 11 12 13 14 15 16 17 18 19 20 21 22 23 24 25 26 27 28 29 30 31 32 33 34 35 36 37 38 39 40 41 42 43 44 45 46 47 48 49 50
000
ASUS43 KOAX 231402
RWRNE

WEATHER ROUNDUP FOR NEBRASKA
NATIONAL WEATHER SERVICE OMAHA NE
900 AM CDT FRI JUN 23 2017

NOTES: SATELLITE DATA IS BEING USED TO AUGMENT CLOUD COVER ABOVE
       12000 FEET.
       "FAIR" INDICATES FEW OR NO CLOUDS BELOW 12,000 FEET WITH NO
       SIGNIFICANT WEATHER AND/OR OBSTRUCTIONS TO VISIBILITY.

  * THESE STATIONS DO NOT REPORT WEATHER SUCH AS RAIN...SNOW OR FOG.

NEZ001>004-019>022-054>056-231500-
NEBRASKA PANHANDLE

CITY           SKY/WX    TMP DP  RH WIND       PRES   REMARKS
SCOTTSBLUFF    CLOUDY    56  39  53 NW10      30.25S
ALLIANCE       CLOUDY    54  44  69 NW9       30.21F
CHADRON        SUNNY     56  42  59 NW16G24   30.22S
GORDON         FAIR      56  43  62 N7        30.19S
KIMBALL        CLOUDY    51  40  67 N10       30.28S
SIDNEY         CLOUDY    53  40  61 N13G22    30.26R
$$

NEZ057>060-069>072-079>082-231500-
SOUTHWEST NEBRASKA

CITY           SKY/WX    TMP DP  RH WIND       PRES   REMARKS
NORTH PLATTE   CLOUDY    60  42  51 N18G31    30.18R
IMPERIAL       CLOUDY    58  43  57 N23G36    30.21R
LEXINGTON      CLOUDY    61  43  50 N22G30    30.13R
MCCOOK         CLOUDY    61  44  53 N22G28    30.15R
OGALLALA       MOSUNNY   61  43  50 N20       30.20S
$$

NEZ005>010-023>029-035>040-094-231500-
NORTH CENTRAL NEBRASKA

CITY           SKY/WX    TMP DP  RH WIND       PRES   REMARKS
VALENTINE      CLOUDY    62  41  46 NW23G30   30.15F
AINSWORTH      LGT RAIN  53  49  89 NW7       30.15F
BROKEN BOW     CLOUDY    59  43  55 N35G44    30.13R
O`NEILL        CLOUDY    58  47  67 NW17G26   30.12R
ORD            CLOUDY    60  43  53 NW23G29   30.10R
THEDFORD       LGT RAIN  53  49  86 NW9       30.16F
$$

NEZ041-046>049-061>064-073>077-083>087-231500-
SOUTH CENTRAL NEBRASKA

CITY           SKY/WX    TMP DP  RH WIND       PRES   REMARKS
GRAND ISLAND   PTSUNNY   65  44  46 N22G30    30.07R
AURORA         PTSUNNY   64  42  45 N21G28    30.05R
HASTINGS       CLOUDY    64  41  42 N18G26    30.08R
HEBRON         CLOUDY    66  52  61 N13       30.00R
HOLDREGE       CLOUDY    62  43  50 N20G25    30.10R
KEARNEY *      CLOUDY    64  39  39 N24G36    30.09R
$$

NEZ011>018-030>034-042>045-231500-
NORTHEAST NEBRASKA

CITY           SKY/WX    TMP DP  RH WIND       PRES   REMARKS
NORFOLK        CLOUDY    62  45  53 NW24G33   30.00R
ALBION         CLOUDY    62  44  50 NW32G40   30.02R
BLAIR          CLOUDY    65  48  53 NW14      29.97R
FREMONT        CLOUDY    65  45  47 N12       30.00R
TEKAMAH        CLOUDY    65  45  48 N17G26    29.96R
WAYNE          CLOUDY    62  46  56 NW22G28   30.01R
$$

NEZ050>053-065>068-078-088>093-231500-
SOUTHEAST NEBRASKA

CITY           SKY/WX    TMP DP  RH WIND       PRES   REMARKS
LINCOLN        CLOUDY    67  50  54 NW8       30.01R
OMAHA EPPLEY   CLOUDY    67  49  52 NW16      29.95R
BEATRICE       CLOUDY    66  54  66 N12       29.99R
FALLS CITY     SUNNY     70  57  63 N14       29.90R
NEBRASKA CITY  CLOUDY    65  59  81 N10       29.94R
PLATTSMOUTH    CLOUDY    65  54  67 NW8       29.96R
$$

NEZ044-045-051>053-067-231500-
OMAHA AREA

CITY           SKY/WX    TMP DP  RH WIND       PRES   REMARKS
OMAHA EPPLEY   CLOUDY    67  49  52 NW16      29.95R
BLAIR          CLOUDY    65  48  53 NW14      29.97R
FREMONT        CLOUDY    65  45  47 N12       30.00R
MILLARD        CLOUDY    69  51  52 NW13      29.97R
PLATTSMOUTH    CLOUDY    65  54  67 NW8       29.96R
WAHOO          FAIR      66  43  42 N13G20    29.98R
$$



USA.gov is the U.S. government's official web portal to all federal, state and local government web resources and services.